CW3590 Weather Reports


Display with metric or nautical units.
time (UTC)temp
F
wind
direction
speed
MPH
gust
MPH
rain 1hr
in
rain 24hr
in
rain mn
in
humidity
%
barometer
mb
20260506135010 62 312 3.0 7.0 0.00 0.00 0.00 85 1010.2
20260506134010 63 296 3.0 8.0 0.00 0.00 0.00 84 1010.1
20260506133009 63 343 2.0 8.0 0.00 0.00 0.00 84 1010.2
20260506132011 64 338 2.0 8.0 0.00 0.00 0.00 84 1010.0
20260506130010 65 316 1.0 8.0 0.00 0.00 0.00 83 1009.8
20260506125010 66 308 1.0 7.0 0.00 0.00 0.00 83 1009.5
20260506124010 67 313 1.0 7.0 0.00 0.00 0.00 83 1009.3
20260506123010 67 292 1.0 4.0 0.00 0.00 0.00 82 1009.1
20260506122010 68 290 1.0 5.0 0.00 0.00 0.00 82 1009.1
20260506121009 69 0 0.0 3.0 0.00 0.00 0.00 82 1008.9
20260506120010 70 0 0.0 2.0 0.00 0.00 0.00 81 1008.8
20260506114009 71 347 2.0 5.0 0.00 0.00 0.00 81 1008.5
20260506111009 74 329 1.0 1.0 0.00 0.00 0.00 87 1007.9
20260506110011 74 310 2.0 6.0 0.00 0.00 0.00 88 1007.7
20260506105009 75 252 1.0 6.0 0.00 0.00 0.00 90 1007.6
20260506104010 75 210 1.0 4.0 0.00 0.00 0.00 90 1007.4
20260506103010 75 213 0.0 5.0 0.00 0.00 0.00 90 1007.3
20260506102010 75 228 1.0 3.0 0.00 0.00 0.00 90 1007.2
20260506101009 75 210 1.0 4.0 0.00 0.00 0.00 90 1007.2
20260506095011 75 185 1.0 4.0 0.00 0.00 0.00 90 1006.9
20260506093009 75 204 1.0 6.0 0.00 0.00 0.00 90 1007.1
20260506092009 75 199 1.0 7.0 0.00 0.00 0.00 90 1007.0
20260506091009 75 189 1.0 6.0 0.00 0.00 0.00 90 1006.8
20260506090009 75 191 1.0 5.0 0.00 0.00 0.00 90 1007.0
20260506085010 75 164 1.0 9.0 0.00 0.00 0.00 90 1006.9
20260506084009 75 189 1.0 6.0 0.00 0.00 0.00 90 1006.8
20260506083010 75 172 2.0 3.0 0.00 0.00 0.00 90 1006.8
20260506082009 75 193 1.0 5.0 0.00 0.00 0.00 90 1006.8
20260506081009 75 227 1.0 4.0 0.00 0.00 0.00 90 1006.9
20260506073009 75 161 1.0 2.0 0.00 0.00 0.00 89 1007.0
20260506072009 75 155 1.0 3.0 0.00 0.00 0.00 89 1006.9
20260506071009 75 0 0.0 3.0 0.00 0.00 0.00 89 1006.9
20260506061009 75 155 1.0 3.0 0.00 0.00 0.00 88 1006.8
20260506051009 76 153 1.0 3.0 0.00 0.00 0.00 86 1006.8
20260506045009 76 178 1.0 5.0 0.00 0.00 0.00 85 1006.7
20260506044009 76 185 0.0 4.0 0.00 0.00 0.00 85 1006.7
20260506043009 76 207 1.0 3.0 0.00 0.00 0.00 85 1006.6
20260506042009 76 157 1.0 2.0 0.00 0.00 0.00 85 1006.5
20260506041009 77 146 1.0 4.0 0.00 0.00 0.00 85 1006.1
20260506040010 77 168 0.0 4.0 0.00 0.00 0.00 85 1006.0
20260506035009 77 0 0.0 3.0 0.00 0.00 0.00 85 1005.9
20260506034010 76 0 0.0 3.0 0.00 0.00 0.00 86 1005.9
20260506033009 77 0 0.0 3.0 0.00 0.00 0.00 85 1005.6
20260506032009 77 0 0.0 1.0 0.00 0.00 0.00 85 1005.4
20260506031009 77 0 0.0 1.0 0.00 0.00 0.00 85 1005.4
20260506030009 77 0 0.0 0.0 0.00 0.00 0.00 84 1005.5
20260506025009 77 0 0.0 4.0 0.00 0.00 0.00 84 1005.6
20260506024009 77 0 0.0 1.0 0.00 0.00 0.00 84 1005.2
20260506023009 78 0 0.0 2.0 0.00 0.00 0.00 83 1005.1
20260506022010 78 0 0.0 2.0 0.00 0.00 0.00 83 1005.3
20260506021009 78 0 0.0 0.0 0.00 0.00 0.00 83 1005.2
20260506015009 79 0 0.0 1.0 0.00 0.00 0.00 81 1005.0
20260506013008 80 0 0.0 2.0 0.00 0.00 0.00 80 1004.9
20260506012009 80 0 0.0 2.0 0.00 0.00 0.00 80 1004.8
20260506011009 80 0 0.0 1.0 0.00 0.00 0.00 79 1004.7
20260506010009 80 0 0.0 0.0 0.00 0.00 0.00 79 1004.5
20260506003009 81 199 1.0 4.0 0.00 0.00 0.00 77 1004.0
20260506002009 81 198 1.0 4.0 0.00 0.00 0.00 77 1003.9
20260506001009 82 185 1.0 6.0 0.00 0.00 0.00 76 1004.0
20260506000008 82 173 1.0 3.0 0.00 0.00 0.00 75 1004.0
20260505235009 82 190 1.0 4.0 0.00 0.00 0.00 75 1004.1
20260505234010 82 178 1.0 7.0 0.00 0.00 0.00 75 1004.0
20260505233009 82 194 1.0 6.0 0.00 0.00 0.00 75 1003.9
20260505231008 82 186 2.0 5.0 0.00 0.00 0.00 74 1003.8
20260505225008 83 165 3.0 7.0 0.00 0.00 0.00 73 1003.6
20260505224008 83 181 2.0 9.0 0.00 0.00 0.00 73 1003.6
20260505222009 83 171 3.0 8.0 0.00 0.00 0.00 73 1003.4
20260505220009 84 194 2.0 7.0 0.00 0.00 0.00 73 1003.7
20260505215008 83 177 3.0 7.0 0.00 0.00 0.00 73 1004.0
20260505213009 82 165 2.0 6.0 0.00 0.00 0.00 74 1004.2
20260505212009 83 185 3.0 7.0 0.00 0.00 0.00 75 1004.3
20260505211009 82 187 3.0 9.0 0.00 0.00 0.00 75 1004.5
20260505210009 82 185 3.0 8.0 0.00 0.00 0.00 74 1004.5
20260505205009 82 196 3.0 7.0 0.00 0.00 0.00 75 1004.6
20260505203009 82 175 4.0 9.0 0.00 0.00 0.00 75 1004.7
20260505202010 81 175 3.0 9.0 0.00 0.00 0.00 75 1004.7
20260505201009 81 185 3.0 8.0 0.00 0.00 0.00 75 1004.7
20260505195009 82 187 3.0 7.0 0.00 0.00 0.00 75 1005.1
20260505193010 80 179 3.0 12.0 0.00 0.00 0.00 76 1005.2
20260505192008 81 190 4.0 9.0 0.00 0.00 0.00 76 1005.1
20260505191010 80 193 3.0 9.0 0.00 0.00 0.00 76 1005.2
20260505190008 80 201 3.0 10.0 0.00 0.00 0.00 77 1005.2
20260505183009 79 184 3.0 12.0 0.00 0.00 0.00 78 1005.6
20260505182009 79 185 3.0 12.0 0.00 0.00 0.00 78 1005.5
20260505181009 78 178 4.0 10.0 0.00 0.00 0.00 79 1005.6
20260505180008 78 183 4.0 11.0 0.00 0.00 0.00 79 1005.8
20260505174009 78 197 4.0 15.0 0.00 0.00 0.00 79 1005.7
20260505173009 78 191 4.0 10.0 0.00 0.00 0.00 79 1005.8
20260505172009 78 193 4.0 14.0 0.00 0.00 0.00 80 1005.9
20260505171008 77 172 4.0 8.0 0.00 0.00 0.00 81 1005.9
20260505170008 77 189 4.0 11.0 0.00 0.00 0.00 80 1005.9
20260505165009 77 184 4.0 12.0 0.00 0.00 0.00 80 1006.0
20260505164008 76 205 4.0 12.0 0.00 0.00 0.00 81 1006.0
20260505163009 76 197 4.0 9.0 0.00 0.00 0.00 82 1006.1
20260505162008 75 196 4.0 10.0 0.00 0.00 0.00 84 1006.1
20260505161008 74 183 4.0 11.0 0.00 0.00 0.00 84 1006.2
20260505153008 73 189 3.0 10.0 0.00 0.00 0.00 85 1006.0
20260505152008 73 184 2.0 8.0 0.00 0.00 0.00 84 1006.1
20260505151008 73 198 3.0 7.0 0.00 0.00 0.00 84 1006.2